This is the latest recevied weather packets stored in our database for station/object KB9GXK. If no packets are shown the sender has not sent any weather packets the latest 10 day(s).
| Time | Temp. | Humidity | Pressure | Rain* | Wind** | Luminosity | Snow |
|---|---|---|---|---|---|---|---|
| 1777954015 | 17.78° C | 37% | 1001.6 hPa | 0 mm | - | 0 W/m² | - |
| 1777953712 | 17.78° C | 41% | 1001.5 hPa | 0 mm | - | 0 W/m² | - |
| 1777953408 | 17.78° C | 41% | 1001.4 hPa | 0 mm | - | 0 W/m² | - |
| 1777953105 | 17.78° C | 43% | 1001.2 hPa | 0 mm | - | 0 W/m² | - |
| 1777952801 | 17.78° C | 45% | 1000.9 hPa | 0 mm | - | 0 W/m² | - |
| 1777952499 | 18.33° C | 44% | 1000.8 hPa | 0 mm | - | 0 W/m² | - |
| 1777952194 | 18.33° C | 43% | 1000.5 hPa | 0 mm | - | 0 W/m² | - |
| 1777951893 | 18.89° C | 43% | 1000.6 hPa | 0 mm | - | 0 W/m² | - |
| 1777951591 | 18.89° C | 42% | 1000.6 hPa | 0 mm | - | 0 W/m² | - |
| 1777951287 | 19.44° C | 42% | 1000.3 hPa | 0 mm | - | 0 W/m² | - |
| 1777950984 | 20° C | 41% | 1000.8 hPa | 0 mm | - | 0 W/m² | - |
| 1777950680 | 20° C | 41% | 1000.7 hPa | 0 mm | - | 0 W/m² | - |
| 1777950378 | 20° C | 41% | 1000.8 hPa | 0 mm | - | 0 W/m² | - |
| 1777950073 | 20.56° C | 42% | 1000.7 hPa | 0 mm | - | 0 W/m² | - |
| 1777949769 | 20.56° C | 42% | 1000.5 hPa | 0 mm | - | 0 W/m² | - |
| 1777949469 | 20° C | 44% | 1000.3 hPa | 0 mm | - | 0 W/m² | - |
| 1777949165 | 19.44° C | 52% | 1000.3 hPa | 0 mm | - | 0 W/m² | - |
| 1777948863 | 19.44° C | 60% | 1000.2 hPa | 0 mm | - | 0 W/m² | - |
| 1777948560 | 19.44° C | 61% | 1000.2 hPa | 0 mm | - | 0 W/m² | - |
| 1777948257 | 19.44° C | 62% | 1000.1 hPa | 0 mm | - | 0 W/m² | - |
| 1777947954 | 19.44° C | 62% | 1000.3 hPa | 0 mm | - | 0 W/m² | - |
| 1777947651 | 19.44° C | 61% | 1000.3 hPa | 0 mm | - | 0 W/m² | - |
| 1777947348 | 20° C | 61% | 999.9 hPa | 0 mm | - | 0 W/m² | - |
| 1777947045 | 19.44° C | 60% | 999.6 hPa | 0 mm | - | 0 W/m² | - |
| 1777946744 | 20° C | 60% | 999.3 hPa | 0 mm | - | 0 W/m² | - |
* Rain latest hour (hover to see other rain measurements)
** Current wind speed in m/s (hover to see current wind gust speed)